,,PA_Meas_PMT16A,,PR_Meas_QMR101_102,,RH_Meas_QMH101,,SR_Meas_QMS101,,TA_Meas_QMH101,,GenWind,,GenWind,
time,status,PA,status,PR,status,RH,status,SR,status,TA,status,DirAvg,status,SpdAvg,
2014-12-04, 00:00:04,VALID,918.917,VALID,0,VALID,88.3097,VALID,0,VALID,19.9368,VALID,341,VALID,0,
2014-12-04, 00:01:04,VALID,918.903,VALID,0,VALID,88.1953,VALID,0,VALID,19.9368,VALID,341,VALID,0,
2014-12-04, 00:02:04,VALID,918.891,VALID,0,VALID,88.1267,VALID,0,VALID,19.9173,VALID,341,VALID,0,
2014-12-04, 00:03:04,VALID,918.871,VALID,0,VALID,88.0886,VALID,0,VALID,19.8978,VALID,341,VALID,0,
2014-12-04, 00:04:04,VALID,918.861,VALID,0,VALID,88.1267,VALID,0,VALID,19.9173,VALID,341,VALID,0.134766,
2014-12-04, 00:05:04,VALID,918.853,VALID,0,VALID,87.7989,VALID,0,VALID,19.9368,VALID,342,VALID,0,
2014-12-04, 00:06:04,VALID,918.876,VALID,0,VALID,87.9209,VALID,0,VALID,19.9563,VALID,342,VALID,0,
2014-12-04, 00:07:04,VALID,918.846,VALID,0,VALID,88.1191,VALID,0,VALID,19.9563,INVALID,360,VALID,0,
2014-12-04, 00:08:04,VALID,918.852,VALID,0,VALID,87.9971,VALID,0,VALID,19.9563,VALID,342,VALID,0,
2014-12-04, 00:09:04,VALID,918.846,VALID,0,VALID,88.1114,VALID,0,VALID,19.9758,VALID,342,VALID,0,
2014-12-04, 00:10:04,VALID,918.817,VALID,0,VALID,88.0505,VALID,0,VALID,19.9758,VALID,342,VALID,0,
2014-12-04, 00:11:04,VALID,918.839,VALID,0,VALID,88.0581,VALID,0,VALID,19.9758,VALID,342,VALID,0,
2014-12-04, 00:12:04,VALID,918.819,VALID,0,VALID,88.0047,VALID,0,VALID,19.9758,VALID,342,VALID,0,
2014-12-04, 00:13:04,VALID,918.814,VALID,0,VALID,88.1038,VALID,0,VALID,19.9563,VALID,358,VALID,0.0609375,
2014-12-04, 00:14:04,VALID,918.796,VALID,0,VALID,87.8751,VALID,0.107441,VALID,19.9758,VALID,13,VALID,0,
2014-12-04, 00:15:04,VALID,918.805,VALID,0,VALID,87.898,VALID,0,VALID,20.0148,VALID,14,VALID,0,
2014-12-04, 00:16:04,VALID,918.806,VALID,0,VALID,87.9971,VALID,0,VALID,20.0148,VALID,14,VALID,0,
2014-12-04, 00:17:04,VALID,918.771,VALID,0,VALID,88.0047,VALID,0,VALID,19.9953,VALID,7,VALID,0,
2014-12-04, 00:18:04,VALID,918.761,VALID,0,VALID,87.9437,VALID,0,VALID,20.0148,VALID,26,VALID,0,
2014-12-04, 00:19:04,VALID,918.779,VALID,0,VALID,87.8675,VALID,0,VALID,19.9953,VALID,26,VALID,0,
2014-12-04, 00:20:04,VALID,918.756,VALID,0,VALID,87.7913,VALID,0,VALID,19.9953,VALID,17,VALID,0,
2014-12-04, 00:21:04,VALID,918.704,VALID,0,VALID,87.9895,VALID,0,VALID,20.0163,VALID,15,VALID,0,
2014-12-04, 00:22:04,VALID,918.704,VALID,0,VALID,87.9285,VALID,0,VALID,19.9953,VALID,15,VALID,0,
2014-12-04, 00:23:04,VALID,918.699,VALID,0,VALID,87.9361,VALID,0.107441,VALID,19.9743,VALID,15,VALID,0,
2014-12-04, 00:24:04,VALID,918.687,VALID,0,VALID,87.8675,VALID,0,VALID,19.9953,VALID,13,VALID,0,
2014-12-04, 00:25:04,VALID,918.687,VALID,0,VALID,87.9895,VALID,0,VALID,19.9953,VALID,9,VALID,0,
2014-12-04, 00:26:04,VALID,918.655,VALID,0,VALID,87.8218,VALID,0.107441,VALID,20.0148,VALID,359,VALID,0,
2014-12-04, 00:27:04,VALID,918.663,VALID,0,VALID,88.0047,VALID,0,VALID,19.9953,VALID,360,VALID,0,
2014-12-04, 00:28:04,VALID,918.638,VALID,0,VALID,88.3859,VALID,0,VALID,19.9758,VALID,16,VALID,0,
2014-12-04, 00:29:04,VALID,918.668,VALID,0,VALID,88.4774,VALID,0,VALID,19.9368,VALID,14,VALID,0,
2014-12-04, 00:30:04,VALID,918.64,VALID,0,VALID,88.5079,VALID,0,VALID,19.9563,VALID,351,VALID,0,
2014-12-04, 00:31:04,VALID,918.649,VALID,0,VALID,88.5384,VALID,0,VALID,19.9758,VALID,350,VALID,0,
2014-12-04, 00:32:04,VALID,918.647,VALID,0,VALID,88.302,VALID,0,VALID,19.9758,VALID,350,VALID,0,
2014-12-04, 00:33:04,VALID,918.651,VALID,0,VALID,88.1572,VALID,0,VALID,19.9758,VALID,350,VALID,0,
2014-12-04, 00:34:04,VALID,918.632,VALID,0,VALID,88.4545,VALID,0,VALID,20.0163,VALID,350,VALID,0,
2014-12-04, 00:35:04,VALID,918.661,VALID,0,VALID,88.5002,VALID,0,VALID,19.9953,VALID,357,VALID,0,
2014-12-04, 00:36:04,VALID,918.631,VALID,0,VALID,88.3859,VALID,0,VALID,19.9758,VALID,358,VALID,0,
2014-12-04, 00:37:04,VALID,918.626,VALID,0,VALID,88.4392,VALID,0,VALID,19.9758,VALID,358,VALID,1.41133,
2014-12-04, 00:38:04,VALID,918.619,VALID,0,VALID,88.4088,VALID,0,VALID,19.9968,VALID,359,VALID,0.83125,
2014-12-04, 00:39:05,VALID,918.649,VALID,0,VALID,88.4469,VALID,0,VALID,19.9758,VALID,359,VALID,0.800391,
2014-12-04, 00:40:04,VALID,918.596,VALID,0,VALID,88.607,VALID,0,VALID,19.9953,VALID,348,VALID,0,
2014-12-04, 00:41:05,VALID,918.623,VALID,0,VALID,88.5079,VALID,0,VALID,19.9953,VALID,359,VALID,0.336328,
2014-12-04, 00:42:05,VALID,918.595,VALID,0,VALID,88.6908,VALID,0,VALID,19.9758,VALID,359,VALID,0,
2014-12-04, 00:43:05,VALID,918.565,VALID,0,VALID,88.7442,VALID,0,VALID,19.9758,VALID,354,VALID,0,
2014-12-04, 00:44:05,VALID,918.593,VALID,0,VALID,88.6984,VALID,0,VALID,19.9563,VALID,350,VALID,0,
2014-12-04, 00:45:05,VALID,918.566,VALID,0,VALID,88.6603,VALID,0,VALID,19.9953,VALID,359,VALID,0,
2014-12-04, 00:46:05,VALID,918.577,VALID,0,VALID,88.5688,VALID,0,VALID,19.9953,VALID,359,VALID,0,
2014-12-04, 00:47:05,VALID,918.565,VALID,0,VALID,88.5765,VALID,0,VALID,19.9953,VALID,359,VALID,0,
2014-12-04, 00:48:05,VALID,918.56,VALID,0,VALID,88.6451,VALID,0,VALID,19.9953,VALID,358,VALID,0,
2014-12-04, 00:49:05,VALID,918.551,VALID,0,VALID,88.5917,VALID,0,VALID,19.9953,VALID,358,VALID,0,
2014-12-04, 00:50:05,VALID,918.516,VALID,0,VALID,88.5993,VALID,0,VALID,19.9953,VALID,358,VALID,0,
2014-12-04, 00:51:05,VALID,918.495,VALID,0,VALID,88.5993,VALID,0,VALID,19.9953,VALID,344,VALID,0,
2014-12-04, 00:52:05,VALID,918.469,VALID,0,VALID,88.5841,VALID,0,VALID,19.9953,VALID,343,VALID,0,
2014-12-04, 00:53:05,VALID,918.431,VALID,0,VALID,88.5384,VALID,0,VALID,20.0148,VALID,347,VALID,0,
2014-12-04, 00:54:05,VALID,918.415,VALID,0,VALID,88.546,VALID,0,VALID,20.0538,VALID,343,VALID,0,
2014-12-04, 00:55:05,VALID,918.377,VALID,0,VALID,88.4545,VALID,0,VALID,20.0538,VALID,344,VALID,0,
2014-12-04, 00:56:05,VALID,918.367,VALID,0,VALID,88.3935,VALID,0,VALID,20.0733,VALID,359,VALID,0,
2014-12-04, 00:57:05,VALID,918.345,VALID,0,VALID,88.424,VALID,0,VALID,20.0718,VALID,359,VALID,0,
2014-12-04, 00:58:05,VALID,918.357,VALID,0,VALID,88.3325,VALID,0,VALID,20.1123,VALID,359,VALID,0,
2014-12-04, 00:59:05,VALID,918.35,VALID,0,VALID,88.3859,VALID,0,VALID,20.0928,VALID,358,VALID,0,
2014-12-04, 01:00:05,VALID,918.358,VALID,0,VALID,88.5917,VALID,0.107441,VALID,20.1123,VALID,358,VALID,0,
2014-12-04, 01:01:05,VALID,918.327,VALID,0,VALID,88.4621,VALID,0,VALID,20.0928,VALID,358,VALID,0,
2014-12-04, 01:02:05,VALID,918.336,VALID,0,VALID,88.4088,VALID,0,VALID,20.0733,VALID,358,VALID,0,
2014-12-04, 01:03:05,VALID,918.309,VALID,0,VALID,88.7137,VALID,0,VALID,20.0718,VALID,358,VALID,0,
2014-12-04, 01:04:05,VALID,918.276,VALID,0,VALID,88.6451,VALID,0,VALID,20.0538,VALID,342,VALID,0,
2014-12-04, 01:05:05,VALID,918.251,VALID,0,VALID,88.6832,VALID,0,VALID,20.0538,VALID,342,VALID,0,
2014-12-04, 01:06:05,VALID,918.238,VALID,0,VALID,88.5765,VALID,0,VALID,20.0343,VALID,342,VALID,0,
2014-12-04, 01:07:05,VALID,918.193,VALID,0,VALID,88.4392,VALID,0,VALID,20.0148,VALID,342,VALID,0,
2014-12-04, 01:08:05,VALID,918.163,VALID,0,VALID,88.1724,VALID,0,VALID,20.0148,VALID,342,VALID,0,
2014-12-04, 01:09:05,VALID,918.167,VALID,0,VALID,88.5231,VALID,0,VALID,19.9953,VALID,343,VALID,0,
2014-12-04, 01:10:05,VALID,918.125,VALID,0,VALID,88.9119,VALID,0,VALID,19.9953,VALID,343,VALID,0,
2014-12-04, 01:11:05,VALID,918.114,VALID,0,VALID,88.9271,VALID,0,VALID,19.9758,VALID,343,VALID,0,
2014-12-04, 01:12:05,VALID,918.07,VALID,0,VALID,88.6756,VALID,0,VALID,19.9563,VALID,343,VALID,0,
2014-12-04, 01:13:05,VALID,918.052,VALID,0,VALID,88.9958,VALID,0,VALID,19.9563,VALID,343,VALID,0,
2014-12-04, 01:14:05,VALID,918.02,VALID,0,VALID,88.9958,VALID,0,VALID,19.9173,VALID,343,VALID,0,
2014-12-04, 01:15:05,VALID,917.994,VALID,0,VALID,89.3388,VALID,0,VALID,19.8978,VALID,343,VALID,0,
2014-12-04, 01:16:05,VALID,918.008,VALID,0,VALID,89.4913,VALID,0,VALID,19.8588,VALID,343,VALID,0,
2014-12-04, 01:17:05,VALID,917.981,VALID,0,VALID,89.7124,VALID,0,VALID,19.8393,VALID,343,VALID,0,
2014-12-04, 01:18:05,VALID,917.957,VALID,0,VALID,90.0478,VALID,0,VALID,19.8003,VALID,343,VALID,0,
2014-12-04, 01:19:05,VALID,917.955,VALID,0,VALID,90.3222,VALID,0,VALID,19.7823,INVALID,360,VALID,0,
2014-12-04, 01:20:05,VALID,917.899,VALID,0,VALID,90.4137,VALID,0,VALID,19.7598,VALID,355,VALID,0,
2014-12-04, 01:21:05,VALID,917.906,VALID,0,VALID,90.4899,VALID,0,VALID,19.7613,VALID,355,VALID,0,
2014-12-04, 01:22:05,VALID,917.866,VALID,0,VALID,90.6424,VALID,0,VALID,19.7418,VALID,355,VALID,0,
2014-12-04, 01:23:05,VALID,917.85,VALID,0,VALID,90.7491,VALID,0,VALID,19.7028,VALID,355,VALID,0,
2014-12-04, 01:24:05,VALID,917.845,VALID,0,VALID,90.9473,VALID,0,VALID,19.6638,VALID,355,VALID,0,
2014-12-04, 01:25:05,VALID,917.779,VALID,0,VALID,91.016,VALID,0,VALID,19.6443,VALID,355,VALID,0,
2014-12-04, 01:26:05,VALID,917.821,VALID,0,VALID,91.0465,VALID,0,VALID,19.6443,VALID,355,VALID,0,
2014-12-04, 01:27:05,VALID,917.801,VALID,0,VALID,91.1074,VALID,0,VALID,19.6248,VALID,355,VALID,0,
2014-12-04, 01:28:05,VALID,917.774,VALID,0,VALID,91.1913,VALID,0,VALID,19.6248,VALID,355,VALID,0,
2014-12-04, 01:29:05,VALID,917.818,VALID,0,VALID,91.1684,VALID,0,VALID,19.6053,VALID,355,VALID,0,
2014-12-04, 01:30:05,VALID,917.769,VALID,0,VALID,91.2904,VALID,0,VALID,19.5873,VALID,355,VALID,0,
2014-12-04, 01:31:05,VALID,917.798,VALID,0,VALID,91.3895,VALID,0,VALID,19.5858,VALID,346,VALID,0,
2014-12-04, 01:32:05,VALID,917.769,VALID,0,VALID,91.3438,VALID,0,VALID,19.5663,VALID,346,VALID,0,
2014-12-04, 01:33:05,VALID,917.772,VALID,0,VALID,91.3285,VALID,0,VALID,19.5663,VALID,346,VALID,0,
2014-12-04, 01:34:05,VALID,917.736,VALID,0,VALID,91.3743,VALID,0,VALID,19.5468,VALID,346,VALID,0,
2014-12-04, 01:35:05,VALID,917.753,VALID,0,VALID,91.4429,VALID,0,VALID,19.5273,VALID,346,VALID,0,
2014-12-04, 01:36:05,VALID,917.73,VALID,0,VALID,91.4734,VALID,0.107441,VALID,19.5078,VALID,346,VALID,0,
2014-12-04, 01:37:05,VALID,917.696,VALID,0,VALID,91.4962,VALID,0,VALID,19.4493,VALID,346,VALID,0,
2014-12-04, 01:38:05,VALID,917.691,VALID,0,VALID,91.6106,VALID,0,VALID,19.4103,VALID,346,VALID,0,
2014-12-04, 01:39:05,VALID,917.681,VALID,0,VALID,91.8393,VALID,0,VALID,19.3713,VALID,346,VALID,0,
2014-12-04, 01:40:05,VALID,917.647,VALID,0,VALID,92.129,VALID,0,VALID,19.3518,VALID,346,VALID,0,
2014-12-04, 01:41:05,VALID,917.648,VALID,0,VALID,92.3043,VALID,0,VALID,19.3323,VALID,346,VALID,0,
2014-12-04, 01:42:05,VALID,917.629,VALID,0,VALID,92.3958,VALID,0,VALID,19.3128,VALID,346,VALID,0,
2014-12-04, 01:43:05,VALID,917.621,VALID,0,VALID,92.5559,VALID,0,VALID,19.2933,VALID,346,VALID,0,
2014-12-04, 01:44:05,VALID,917.598,VALID,0,VALID,92.655,VALID,0,VALID,19.2543,VALID,346,VALID,0,
2014-12-04, 01:45:05,VALID,917.608,VALID,0,VALID,92.594,VALID,0,VALID,19.2558,VALID,346,VALID,0,
2014-12-04, 01:46:05,VALID,917.592,VALID,0,VALID,92.6931,VALID,0,VALID,19.2153,VALID,346,VALID,0,
2014-12-04, 01:47:05,VALID,917.612,VALID,0,VALID,92.716,VALID,0,VALID,19.1763,VALID,346,VALID,0,
2014-12-04, 01:48:05,VALID,917.605,VALID,0,VALID,92.8913,VALID,0,VALID,19.1568,VALID,346,VALID,0,
2014-12-04, 01:49:05,VALID,917.605,VALID,0,VALID,93.0362,VALID,0,VALID,19.1778,VALID,346,VALID,0,
2014-12-04, 01:50:05,VALID,917.596,VALID,0,VALID,93.2115,VALID,0,VALID,19.1568,VALID,346,VALID,0,
2014-12-04, 01:51:05,VALID,917.59,VALID,0,VALID,93.3716,VALID,0,VALID,19.1568,VALID,346,VALID,0,
2014-12-04, 01:52:05,VALID,917.58,VALID,0,VALID,93.3564,VALID,0,VALID,19.1973,VALID,346,VALID,0,
2014-12-04, 01:53:05,VALID,917.559,VALID,0,VALID,93.3868,VALID,0,VALID,19.1973,VALID,346,VALID,0,
2014-12-04, 01:54:05,VALID,917.538,VALID,0,VALID,93.2877,VALID,0,VALID,19.2363,VALID,346,VALID,0,
2014-12-04, 01:55:05,VALID,917.559,VALID,0,VALID,92.8761,VALID,0,VALID,19.2753,VALID,348,VALID,0,
2014-12-04, 01:56:05,VALID,917.513,VALID,0,VALID,92.5102,VALID,0,VALID,19.2753,VALID,348,VALID,0,
2014-12-04, 01:57:05,VALID,917.501,VALID,0,VALID,92.5025,VALID,0,VALID,19.2933,VALID,348,VALID,0,
2014-12-04, 01:58:05,VALID,917.52,VALID,0,VALID,92.2662,VALID,0,VALID,19.3128,VALID,348,VALID,0,
2014-12-04, 01:59:05,VALID,917.465,VALID,0,VALID,92.129,VALID,0,VALID,19.3323,VALID,348,VALID,0,
2014-12-04, 02:00:05,VALID,917.424,VALID,0,VALID,91.7935,VALID,0,VALID,19.3338,VALID,348,VALID,0,
2014-12-04, 02:01:05,VALID,917.426,VALID,0,VALID,91.7554,VALID,0,VALID,19.3143,VALID,348,VALID,0,
2014-12-04, 02:02:05,VALID,917.392,VALID,0,VALID,91.7859,VALID,0,VALID,19.3338,VALID,348,VALID,0,
2014-12-04, 02:03:05,VALID,917.353,VALID,0,VALID,91.5267,VALID,0,VALID,19.2753,VALID,348,VALID,0,
2014-12-04, 02:04:05,VALID,917.312,VALID,0,VALID,91.5572,VALID,0,VALID,19.2363,VALID,348,VALID,0,
2014-12-04, 02:05:05,VALID,917.292,VALID,0,VALID,91.9155,VALID,0,VALID,19.1973,VALID,348,VALID,0,
2014-12-04, 02:06:05,VALID,917.313,VALID,0,VALID,92.2128,VALID,0,VALID,19.1778,VALID,348,VALID,0,
2014-12-04, 02:07:05,VALID,917.296,VALID,0,VALID,92.5788,VALID,0,VALID,19.1778,VALID,348,VALID,0,
2014-12-04, 02:08:05,VALID,917.288,VALID,0,VALID,92.4797,VALID,0,VALID,19.1583,VALID,348,VALID,0,
2014-12-04, 02:09:05,VALID,917.291,VALID,0,VALID,92.655,VALID,0,VALID,19.1388,VALID,348,VALID,0,
2014-12-04, 02:10:05,VALID,917.308,VALID,0,VALID,92.8989,VALID,0,VALID,19.1193,VALID,348,VALID,0,
2014-12-04, 02:11:05,VALID,917.291,VALID,0,VALID,93.0057,VALID,0,VALID,19.0998,VALID,348,VALID,0,
2014-12-04, 02:12:05,VALID,917.282,VALID,0,VALID,93.1581,VALID,0,VALID,19.1193,VALID,348,VALID,0,
2014-12-04, 02:13:05,VALID,917.268,VALID,0,VALID,93.1505,VALID,0,VALID,19.0998,VALID,348,VALID,0,
2014-12-04, 02:14:05,VALID,917.245,VALID,0,VALID,93.0972,VALID,0,VALID,19.0803,VALID,348,VALID,0,
2014-12-04, 02:15:05,VALID,917.203,VALID,0,VALID,93.1658,VALID,0,VALID,19.0803,VALID,348,VALID,0,
2014-12-04, 02:16:05,VALID,917.165,VALID,0,VALID,93.0972,VALID,0,VALID,19.0803,VALID,348,VALID,0,
2014-12-04, 02:17:05,VALID,917.167,VALID,0,VALID,93.059,VALID,0,VALID,19.0413,VALID,348,VALID,0,
2014-12-04, 02:18:05,VALID,917.158,VALID,0,VALID,93.1658,VALID,0,VALID,19.0218,VALID,348,VALID,0,
2014-12-04, 02:19:05,VALID,917.154,VALID,0,VALID,93.5698,VALID,0,VALID,19.0023,VALID,348,VALID,0,
2014-12-04, 02:20:05,VALID,917.162,VALID,0,VALID,93.8519,VALID,0,VALID,19.0023,VALID,348,VALID,0,
2014-12-04, 02:21:05,VALID,917.152,VALID,0,VALID,94.5913,VALID,0,VALID,19.0218,VALID,348,VALID,0,
2014-12-04, 02:22:05,VALID,917.117,VALID,0,VALID,94.6295,VALID,0,VALID,19.0218,VALID,348,VALID,0,
2014-12-04, 02:23:05,VALID,917.091,VALID,0,VALID,94.5609,VALID,0,VALID,19.0218,VALID,348,VALID,0,
2014-12-04, 02:24:05,VALID,917.062,VALID,0,VALID,94.5837,VALID,0,VALID,19.0218,VALID,348,VALID,0,
2014-12-04, 02:25:05,VALID,917.025,VALID,0,VALID,94.5304,VALID,0,VALID,19.0218,VALID,348,VALID,0,
2014-12-04, 02:26:05,VALID,917.013,VALID,0,VALID,94.4008,VALID,0,VALID,19.0023,VALID,348,VALID,0,
2014-12-04, 02:27:05,VALID,917.013,VALID,0,VALID,94.294,VALID,0,VALID,18.9633,VALID,348,VALID,0,
2014-12-04, 02:28:05,VALID,916.988,VALID,0,VALID,94.2026,VALID,0,VALID,18.9633,VALID,348,VALID,0,
2014-12-04, 02:29:05,VALID,916.987,VALID,0,VALID,94.6828,VALID,0,VALID,18.9633,VALID,348,VALID,0,
2014-12-04, 02:30:05,VALID,917.01,VALID,0,VALID,94.7667,VALID,0,VALID,19.0023,VALID,348,VALID,0,
2014-12-04, 02:31:05,VALID,917.074,VALID,0,VALID,94.7972,VALID,0,VALID,19.0218,VALID,348,VALID,0,
2014-12-04, 02:32:05,VALID,917.05,VALID,0,VALID,94.0577,VALID,0,VALID,18.9814,VALID,348,VALID,0,
2014-12-04, 02:33:05,VALID,917.062,VALID,0,VALID,94.3703,VALID,0,VALID,18.9828,VALID,348,VALID,0,
2014-12-04, 02:34:05,VALID,917.04,VALID,0,VALID,94.5304,VALID,0,VALID,18.9633,VALID,348,VALID,0,
2014-12-04, 02:35:05,VALID,917.008,VALID,0,VALID,94.9344,VALID,0,VALID,19.0037,VALID,348,VALID,0,
2014-12-04, 02:36:05,VALID,917.036,VALID,0,VALID,94.6981,VALID,0,VALID,18.9828,VALID,348,VALID,0,
2014-12-04, 02:37:05,VALID,916.998,VALID,0,VALID,94.8734,VALID,0,VALID,18.9828,VALID,348,VALID,0,
2014-12-04, 02:38:05,VALID,916.975,VALID,0,VALID,94.9039,VALID,0,VALID,18.9828,VALID,348,VALID,0,
2014-12-04, 02:39:05,VALID,916.99,VALID,0,VALID,95.0183,VALID,0,VALID,18.9828,VALID,348,VALID,0,
2014-12-04, 02:40:05,VALID,917.008,VALID,0,VALID,94.9344,VALID,0,VALID,19.0232,VALID,348,VALID,0,
2014-12-04, 02:41:05,VALID,917.026,VALID,0,VALID,94.7743,VALID,0,VALID,18.9842,VALID,348,VALID,0,
2014-12-04, 02:42:05,VALID,917.058,VALID,0,VALID,94.7209,VALID,0,VALID,18.9438,VALID,348,VALID,0,
2014-12-04, 02:43:05,VALID,917.046,VALID,0,VALID,94.9192,VALID,0,VALID,18.9438,VALID,348,VALID,0,
2014-12-04, 02:44:05,VALID,917.048,VALID,0,VALID,95.1402,VALID,0,VALID,18.9828,VALID,348,VALID,0,
2014-12-04, 02:45:05,VALID,917.044,VALID,0,VALID,95.2393,VALID,0,VALID,19.0023,VALID,348,VALID,0,
2014-12-04, 02:46:05,VALID,917.016,VALID,0,VALID,95.2546,VALID,0,VALID,19.0218,VALID,348,VALID,0,
2014-12-04, 02:47:05,VALID,917.014,VALID,0,VALID,95.2088,VALID,0,VALID,19.0413,VALID,348,VALID,0,
2014-12-04, 02:48:05,VALID,916.981,VALID,0,VALID,95.1555,VALID,0.107441,VALID,19.0398,VALID,348,VALID,0,
2014-12-04, 02:49:05,VALID,916.958,VALID,0,VALID,94.9801,VALID,0,VALID,19.0608,VALID,348,VALID,0,
2014-12-04, 02:50:05,VALID,916.926,VALID,0,VALID,94.4846,VALID,0,VALID,19.0622,VALID,348,VALID,0,
2014-12-04, 02:51:05,VALID,916.904,VALID,0,VALID,94.2788,VALID,0,VALID,19.0413,VALID,348,VALID,0,
2014-12-04, 02:52:05,VALID,916.896,VALID,0,VALID,93.8671,VALID,0,VALID,19.0023,VALID,348,VALID,0,
2014-12-04, 02:53:05,VALID,916.872,VALID,0,VALID,94.1873,VALID,0,VALID,18.9842,VALID,348,VALID,0,
2014-12-04, 02:54:05,VALID,916.892,VALID,0,VALID,94.8429,VALID,0,VALID,18.9633,VALID,348,VALID,0,
2014-12-04, 02:55:05,VALID,916.839,VALID,0,VALID,95.0335,VALID,0,VALID,18.9828,VALID,348,VALID,0,
2014-12-04, 02:56:05,VALID,916.847,VALID,0,VALID,95.247,VALID,0,VALID,19.0023,VALID,346,VALID,0,
2014-12-04, 02:57:05,VALID,916.836,VALID,0,VALID,95.1783,VALID,0,VALID,19.0413,VALID,347,VALID,0,
2014-12-04, 02:58:05,VALID,916.803,VALID,0,VALID,95.0792,VALID,0,VALID,19.0608,VALID,347,VALID,0,
2014-12-04, 02:59:05,VALID,916.785,VALID,0,VALID,94.7591,VALID,0,VALID,19.0803,VALID,347,VALID,0,
2014-12-04, 03:00:05,VALID,916.742,VALID,0,VALID,94.7591,VALID,0,VALID,19.0998,VALID,347,VALID,0,
2014-12-04, 03:01:05,VALID,916.754,VALID,0,VALID,94.3245,VALID,0,VALID,19.0998,VALID,349,VALID,0,
2014-12-04, 03:02:05,VALID,916.775,VALID,0,VALID,94.0272,VALID,0,VALID,19.1193,VALID,1,VALID,0,
2014-12-04, 03:03:05,VALID,916.793,VALID,0,VALID,93.425,VALID,0,VALID,19.1193,VALID,1,VALID,0,
2014-12-04, 03:04:05,VALID,916.802,VALID,0,VALID,93.3182,VALID,0,VALID,19.1388,VALID,1,VALID,0,
2014-12-04, 03:05:05,VALID,916.802,VALID,0,VALID,93.0667,VALID,0,VALID,19.1402,VALID,1,VALID,0,
2014-12-04, 03:06:05,VALID,916.821,VALID,0,VALID,92.9904,VALID,0,VALID,19.0998,VALID,1,VALID,0,
2014-12-04, 03:07:05,VALID,916.807,VALID,0,VALID,93.0362,VALID,0,VALID,19.0998,VALID,2,VALID,0,
2014-12-04, 03:08:05,VALID,916.826,VALID,0,VALID,93.1658,VALID,0,VALID,19.0803,VALID,3,VALID,0,
2014-12-04, 03:09:05,VALID,916.82,VALID,0,VALID,93.2496,VALID,0,VALID,19.1193,VALID,3,VALID,0,
2014-12-04, 03:10:05,VALID,916.76,VALID,0,VALID,93.4478,VALID,0,VALID,19.1583,VALID,3,VALID,0,
2014-12-04, 03:11:05,VALID,916.78,VALID,0,VALID,93.4173,VALID,0,VALID,19.1973,VALID,3,VALID,0,
2014-12-04, 03:12:05,VALID,916.775,VALID,0,VALID,93.4555,VALID,0,VALID,19.2558,VALID,3,VALID,0,
2014-12-04, 03:13:05,VALID,916.784,VALID,0,VALID,93.2954,VALID,0,VALID,19.2948,VALID,3,VALID,0,
2014-12-04, 03:14:05,VALID,916.766,VALID,0,VALID,92.9752,VALID,0,VALID,19.3338,VALID,3,VALID,0,
2014-12-04, 03:15:05,VALID,916.779,VALID,0,VALID,92.6397,VALID,0,VALID,19.3728,VALID,3,VALID,0,
2014-12-04, 03:16:05,VALID,916.772,VALID,0,VALID,92.472,VALID,0,VALID,19.3937,VALID,3,VALID,0,
2014-12-04, 03:17:05,VALID,916.786,VALID,0,VALID,92.0909,VALID,0,VALID,19.4118,VALID,3,VALID,0,
2014-12-04, 03:18:05,VALID,916.802,VALID,0,VALID,90.9321,VALID,0,VALID,19.3143,VALID,3,VALID,0,
2014-12-04, 03:19:05,VALID,916.799,VALID,0,VALID,91.016,VALID,0,VALID,19.2558,VALID,3,VALID,0,
2014-12-04, 03:20:05,VALID,916.773,VALID,0,VALID,91.237,VALID,0,VALID,19.1778,VALID,3,VALID,0,
2014-12-04, 03:21:05,VALID,916.809,VALID,0,VALID,92.068,VALID,0,VALID,19.1583,VALID,3,VALID,0,
2014-12-04, 03:22:05,VALID,916.804,VALID,0,VALID,92.6474,VALID,0,VALID,19.1583,VALID,3,VALID,0,
2014-12-04, 03:23:04,VALID,916.801,VALID,0,VALID,93.1276,VALID,0,VALID,19.1583,VALID,3,VALID,0,
2014-12-04, 03:24:04,VALID,916.758,VALID,0,VALID,92.9447,VALID,0,VALID,19.1583,VALID,3,VALID,0,
2014-12-04, 03:25:04,VALID,916.746,VALID,0,VALID,92.7846,VALID,0,VALID,19.1193,VALID,3,VALID,0,
2014-12-04, 03:26:04,VALID,916.757,VALID,0,VALID,92.7998,VALID,0,VALID,19.0998,VALID,3,VALID,0,
2014-12-04, 03:27:04,VALID,916.71,VALID,0,VALID,92.9981,VALID,0,VALID,19.1193,VALID,3,VALID,0,
2014-12-04, 03:28:04,VALID,916.691,VALID,0,VALID,93.0057,VALID,0,VALID,19.1193,VALID,3,VALID,0,
2014-12-04, 03:29:04,VALID,916.674,VALID,0,VALID,93.0514,VALID,0,VALID,19.0998,VALID,3,VALID,0,
2014-12-04, 03:30:04,VALID,916.701,VALID,0,VALID,93.059,VALID,0,VALID,19.0803,VALID,3,VALID,0,
2014-12-04, 03:31:04,VALID,916.724,VALID,0,VALID,93.1048,VALID,0,VALID,19.0608,VALID,3,VALID,0,
2014-12-04, 03:32:04,VALID,916.728,VALID,0,VALID,93.5622,VALID,0,VALID,19.0608,VALID,3,VALID,0,
2014-12-04, 03:33:04,VALID,916.731,VALID,0,VALID,94.0501,VALID,0,VALID,19.1012,VALID,3,VALID,0,
2014-12-04, 03:34:04,VALID,916.722,VALID,0,VALID,94.2483,VALID,0,VALID,19.0998,VALID,3,VALID,0,
2014-12-04, 03:35:04,VALID,916.737,VALID,0,VALID,94.3779,VALID,0,VALID,19.0998,VALID,3,VALID,0,
2014-12-04, 03:36:04,VALID,916.724,VALID,0,VALID,93.7833,VALID,0,VALID,19.1193,VALID,3,VALID,0,
2014-12-04, 03:37:04,VALID,916.709,VALID,0,VALID,93.707,VALID,0,VALID,19.0998,VALID,3,VALID,0,
2014-12-04, 03:38:04,VALID,916.681,VALID,0,VALID,94.073,VALID,0,VALID,19.0998,VALID,3,VALID,0,
2014-12-04, 03:39:04,VALID,916.68,VALID,0,VALID,94.1873,VALID,0,VALID,19.1193,VALID,3,VALID,0,
2014-12-04, 03:40:04,VALID,916.641,VALID,0,VALID,94.2483,VALID,0,VALID,19.1388,VALID,3,VALID,0,
2014-12-04, 03:41:04,VALID,916.628,VALID,0,VALID,93.5393,VALID,0,VALID,19.1193,VALID,3,VALID,0,
2014-12-04, 03:42:04,VALID,916.633,VALID,0,VALID,93.8595,VALID,0,VALID,19.1207,VALID,3,VALID,0,
2014-12-04, 03:43:04,VALID,916.64,VALID,0,VALID,94.0958,VALID,0,VALID,19.1193,VALID,3,VALID,0,
2014-12-04, 03:44:04,VALID,916.622,VALID,0,VALID,93.5698,VALID,0,VALID,19.0803,VALID,3,VALID,0,
2014-12-04, 03:45:04,VALID,916.636,VALID,0,VALID,93.8443,VALID,0,VALID,19.0998,VALID,3,VALID,0,
2014-12-04, 03:46:04,VALID,916.663,VALID,0,VALID,93.7451,VALID,0,VALID,19.0608,VALID,3,VALID,0,
2014-12-04, 03:47:04,VALID,916.698,VALID,0,VALID,93.7299,VALID,0,VALID,19.0218,VALID,3,VALID,0,
2014-12-04, 03:48:04,VALID,916.678,VALID,0,VALID,93.6079,VALID,0,VALID,18.9828,VALID,3,VALID,0,
2014-12-04, 03:49:04,VALID,916.69,VALID,0,VALID,94.6981,VALID,0,VALID,19.0218,VALID,3,VALID,0,
2014-12-04, 03:50:04,VALID,916.673,VALID,0,VALID,94.6218,VALID,0,VALID,19.0023,VALID,3,VALID,0,
2014-12-04, 03:51:04,VALID,916.65,VALID,0,VALID,94.6218,VALID,0,VALID,19.0232,VALID,3,VALID,0,
2014-12-04, 03:52:04,VALID,916.636,VALID,0,VALID,94.5075,VALID,0,VALID,19.0218,VALID,3,VALID,0,
2014-12-04, 03:53:04,VALID,916.623,VALID,0,VALID,94.4008,VALID,0,VALID,19.0023,VALID,3,VALID,0,
2014-12-04, 03:54:04,VALID,916.631,VALID,0,VALID,94.2026,VALID,0,VALID,18.9828,VALID,3,VALID,0,
2014-12-04, 03:55:04,VALID,916.634,VALID,0,VALID,93.89,VALID,0,VALID,18.9438,VALID,3,VALID,0,
2014-12-04, 03:56:04,VALID,916.667,VALID,0,VALID,93.7909,VALID,0,VALID,18.9062,VALID,3,VALID,0,
2014-12-04, 03:57:04,VALID,916.651,VALID,0,VALID,94.6142,VALID,0,VALID,18.8853,VALID,3,VALID,0,
2014-12-04, 03:58:04,VALID,916.656,VALID,0,VALID,95.1479,VALID,0,VALID,18.9048,VALID,3,VALID,0,
2014-12-04, 03:59:04,VALID,916.663,VALID,0,VALID,95.3308,VALID,0,VALID,18.9048,VALID,3,VALID,0,
2014-12-04, 04:00:04,VALID,916.687,VALID,0,VALID,95.3689,VALID,0,VALID,18.9243,VALID,355,VALID,0,